Location: Newark
(25.4800°N, 85.7200°E)
Time: 04:03:05
(UTC+00:00)

Explorer 11/Cluster Stage 4 - Pass Details

Date: 26 August 2019
Orbit: 467 x 1260 km, 28.8° (Epoch: 17 September)

Event Time Altitude Azimuth Distance (km) Brightness Sun altitude
Rises 03:53:28 0° 259° (W) 3,867 9.8 52.4°
Reaches altitude 10° 03:56:05 10° 260° (W) 3,001 9.3 53.0°
Maximum altitude 04:03:47 82° 348° (NNW) 1,241 8.6 54.7°
Drops below altitude 10° 04:12:07 10° 76° (ENE) 3,229 10.3 56.4°
Sets 04:15:02 0° 77° (ENE) 4,173 10.7 57.1°
